This is the latest recevied weather packets stored in our database for station/object KC4JY. If no packets are shown the sender has not sent any weather packets the latest 10 day(s).
| Time | Temp. | Humidity | Pressure | Rain* | Wind** | Luminosity | Snow |
|---|---|---|---|---|---|---|---|
| 1777910422 | 22.22° C | 46% | 1016.9 hPa | 0 mm | - | - | - |
| 1777909561 | 21.67° C | 49% | 1017.1 hPa | 0 mm | - | - | - |
| 1777908666 | 21.67° C | 51% | 1017.1 hPa | 0 mm | - | - | - |
| 1777907736 | 21.11° C | 52% | 1017.4 hPa | 0 mm | - | - | - |
| 1777906834 | 21.11° C | 56% | 1017.5 hPa | 0 mm | - | - | - |
| 1777905913 | 20° C | 55% | 1017.4 hPa | 0 mm | - | - | - |
| 1777905009 | 20° C | 59% | 1017.5 hPa | 0 mm | - | - | - |
| 1777904148 | 19.44° C | 61% | 1017.6 hPa | 0 mm | - | - | - |
| 1777903261 | 18.33° C | 64% | 1017.6 hPa | 0 mm | - | - | - |
| 1777902323 | 17.78° C | 67% | 1017.7 hPa | 0 mm | - | - | - |
| 1777901420 | 17.22° C | 68% | 1017.6 hPa | 0 mm | - | - | - |
| 1777900558 | 16.67° C | 71% | 1017.6 hPa | 0 mm | - | - | - |
| 1777899654 | 15.56° C | 73% | 1017.8 hPa | 0 mm | - | - | - |
| 1777898733 | 15° C | 76% | 1017.8 hPa | 0 mm | - | - | - |
| 1777897834 | 13.89° C | 81% | 1017.9 hPa | 0 mm | - | - | - |
| 1777896916 | 12.78° C | 83% | 1017.8 hPa | 0 mm | - | - | - |
| 1777896002 | 11.67° C | 84% | 1017.9 hPa | 0 mm | - | - | - |
| 1777895140 | 10.56° C | 86% | 1018.1 hPa | 0 mm | - | - | - |
| 1777894246 | 10° C | 88% | 1018.1 hPa | 0 mm | - | - | - |
| 1777893323 | 9.44° C | 88% | 1018.1 hPa | 0 mm | - | - | - |
| 1777892420 | 8.89° C | 89% | 1018.1 hPa | 0 mm | - | - | - |
| 1777891516 | 8.33° C | 88% | 1018.1 hPa | 0 mm | - | - | - |
| 1777890619 | 8.89° C | 88% | 1017.9 hPa | 0 mm | - | - | - |
| 1777889713 | 8.89° C | 88% | 1017.8 hPa | 0 mm | - | - | - |
| 1777888814 | 8.89° C | 88% | 1017.8 hPa | 0 mm | - | - | - |
* Rain latest hour (hover to see other rain measurements)
** Current wind speed in m/s (hover to see current wind gust speed)